EW1940 Weather Reports


time (UTC)temp
C
wind
direction
speed
KPH
gust
KPH
rain 1hr
cm
rain 24hr
cm
rain mn
cm
humidity
%
barometer
mb
20260510140018 11 45 4.8 12.9 0.03 0.46 0.46 89 1014.8
20260510135016 11 23 9.7 25.7 0.03 0.46 0.46 88 1014.7
20260510134016 11 45 9.7 17.7 0.03 0.46 0.46 88 1014.9
20260510133016 11 45 9.7 22.5 0.00 0.43 0.43 88 1014.9
20260510132017 11 45 9.7 19.3 0.00 0.43 0.43 88 1015.0
20260510131016 11 45 8.0 20.9 0.03 0.43 0.43 89 1015.1
20260510130056 11 45 11.3 24.1 0.13 0.43 0.43 89 1015.1
20260510125017 11 45 6.4 16.1 0.15 0.43 0.43 89 1015.1
20260510124016 11 23 9.7 19.3 0.15 0.43 0.43 89 1015.0
20260510123017 11 45 9.7 17.7 0.20 0.43 0.43 89 1014.9
20260510122016 11 23 11.3 22.5 0.28 0.43 0.43 88 1014.9
20260510121018 11 0 9.7 19.3 0.28 0.43 0.43 88 1014.9
20260510120017 11 23 11.3 22.5 0.18 0.33 0.33 87 1015.2
20260510115038 11 45 9.7 16.1 0.15 0.30 0.30 87 1015.5
20260510114016 11 45 12.9 20.9 0.15 0.28 0.28 87 1015.6
20260510113018 11 45 8.0 19.3 0.15 0.23 0.23 86 1015.8
20260510112038 11 45 4.8 12.9 0.10 0.15 0.15 85 1016.0
20260510111017 11 45 6.4 14.5 0.08 0.15 0.15 85 1015.9
20260510110039 11 45 8.0 19.3 0.08 0.15 0.15 85 1015.9
20260510105016 11 23 8.0 19.3 0.08 0.15 0.15 85 1016.0
20260510104016 11 45 6.4 22.5 0.08 0.13 0.13 84 1016.0
20260510103016 11 45 8.0 16.1 0.05 0.08 0.08 84 1016.1
20260510102016 11 45 8.0 14.5 0.05 0.05 0.05 84 1016.0
20260510101017 11 68 4.8 11.3 0.05 0.05 0.05 84 1016.0
20260510100016 11 45 9.7 16.1 0.05 0.05 0.05 82 1016.0
20260510095019 11 45 9.7 24.1 0.05 0.05 0.05 82 1015.9
20260510094017 11 45 9.7 24.1 0.05 0.05 0.05 81 1015.7
20260510093016 11 45 11.3 22.5 0.05 0.05 0.05 80 1015.8
20260510092016 11 45 12.9 24.1 0.03 0.03 0.03 80 1015.8
20260510091016 12 45 9.7 17.7 0.00 0.00 0.00 79 1015.9
20260510090019 12 45 9.7 24.1 0.00 0.00 0.00 78 1016.0
20260510085017 12 45 8.0 20.9 0.00 0.00 0.00 77 1016.0
20260510084016 12 45 9.7 19.3 0.00 0.00 0.00 77 1016.0
20260510083016 12 23 11.3 19.3 0.00 0.00 0.00 76 1016.0
20260510082037 12 45 8.0 17.7 0.00 0.00 0.00 75 1016.0
20260510081016 12 45 8.0 19.3 0.00 0.00 0.00 73 1016.0
20260510080016 12 45 8.0 24.1 0.00 0.00 0.00 74 1016.0
20260510075016 12 45 11.3 22.5 0.00 0.00 0.00 74 1015.9
20260510074015 12 45 11.3 22.5 0.00 0.00 0.00 76 1015.8
20260510073015 11 45 11.3 25.7 0.00 0.00 0.00 76 1015.8
20260510072015 11 45 9.7 20.9 0.00 0.00 0.00 77 1015.8
20260510071017 11 45 9.7 17.7 0.00 0.00 0.00 77 1015.8
20260510070017 11 45 9.7 24.1 0.00 0.00 0.00 77 1015.9
20260510065015 11 45 9.7 22.5 0.00 0.00 0.00 77 1015.9
20260510064016 11 45 11.3 20.9 0.00 0.00 0.00 78 1015.9
20260510063016 11 23 12.9 25.7 0.00 0.00 0.00 77 1016.0
20260510062057 11 45 8.0 22.5 0.00 0.00 0.00 77 1016.0
20260510061017 11 45 11.3 22.5 0.00 0.00 0.00 77 1016.1
20260510060017 11 45 6.4 14.5 0.00 0.00 0.00 77 1016.2
20260510055017 11 45 8.0 17.7 0.00 0.00 0.00 77 1016.1
20260510054015 11 23 9.7 22.5 0.00 0.00 0.00 77 1016.1
20260510053037 11 45 9.7 24.1 0.00 0.00 0.00 77 1016.1
20260510052015 11 45 8.0 16.1 0.00 0.00 0.00 77 1016.0
20260510051015 11 68 9.7 22.5 0.00 0.00 0.00 77 1016.0
20260510050015 11 45 9.7 19.3 0.00 0.00 0.00 77 1015.9
20260510045038 11 45 12.9 25.7 0.00 0.00 0.00 76 1015.9
20260510044017 11 45 8.0 20.9 0.00 0.00 0.00 76 1015.9
20260510043037 11 45 11.3 25.7 0.00 0.00 0.00 75 1015.8
20260510042019 11 23 11.3 20.9 0.00 0.00 0.00 74 1015.9
20260510041019 11 23 9.7 19.3 0.00 0.00 0.00 74 1015.9
20260510040017 11 45 14.5 24.1 0.00 0.00 0.00 73 1016.0
20260510035039 12 45 9.7 19.3 0.00 0.00 0.00 73 1016.0
20260510034018 12 45 8.0 16.1 0.00 0.00 0.00 72 1016.0
20260510033019 12 45 9.7 22.5 0.00 0.00 0.00 72 1016.1
20260510032017 12 45 9.7 19.3 0.00 0.00 0.00 71 1016.2
20260510031019 12 45 11.3 24.1 0.00 0.00 0.00 71 1016.3
20260510030017 12 45 9.7 17.7 0.00 0.00 0.00 71 1016.4
20260510025036 12 45 11.3 22.5 0.00 0.00 0.00 71 1016.2
20260510024017 12 45 9.7 17.7 0.00 0.00 0.00 71 1016.2
20260510023041 12 45 8.0 17.7 0.00 0.00 0.00 70 1016.1
20260510022057 12 45 6.4 12.9 0.00 0.00 0.00 69 1016.2
20260510021017 12 45 8.0 17.7 0.00 0.00 0.00 68 1016.3
20260510020017 12 45 9.7 22.5 0.00 0.00 0.00 67 1016.3
20260510015017 12 45 8.0 20.9 0.00 0.00 0.00 65 1016.3
20260510014037 12 45 6.4 14.5 0.00 0.00 0.00 65 1016.4
20260510013019 13 45 8.0 16.1 0.00 0.00 0.00 64 1016.5
20260510012017 13 45 6.4 12.9 0.00 0.00 0.00 63 1016.4
20260510011059 13 45 6.4 14.5 0.00 0.00 0.00 63 1016.4
20260510010017 13 45 4.8 11.3 0.00 0.00 0.00 63 1016.4
20260510005018 13 90 4.8 9.7 0.00 0.00 0.00 62 1016.4
20260510004017 13 45 4.8 11.3 0.00 0.00 0.00 60 1016.4
20260510003017 13 90 4.8 12.9 0.00 0.00 0.00 59 1016.4
20260510002017 13 68 4.8 12.9 0.00 0.00 0.00 57 1016.5
20260510001019 13 68 3.2 6.4 0.00 0.00 0.00 57 1016.5
20260510000038 13 90 4.8 11.3 0.00 0.00 0.00 55 1016.4
20260509235037 13 90 6.4 20.9 0.00 0.00 0.00 55 1016.3
20260509234017 13 90 4.8 12.9 0.00 0.00 0.00 54 1016.2
20260509233017 13 45 4.8 14.5 0.00 0.00 0.00 52 1016.3
20260509232017 14 68 4.8 11.3 0.00 0.00 0.00 52 1016.3
20260509231017 14 45 8.0 17.7 0.00 0.00 0.00 50 1016.2
20260509230017 14 45 9.7 19.3 0.00 0.00 0.00 50 1016.3
20260509225017 14 45 4.8 14.5 0.00 0.00 0.00 49 1016.3
20260509223038 14 45 6.4 19.3 0.00 0.00 0.00 48 1016.2
20260509222057 15 45 6.4 14.5 0.00 0.00 0.00 47 1016.2
20260509221019 15 90 8.0 16.1 0.00 0.00 0.00 46 1016.2
20260509220018 15 68 6.4 16.1 0.00 0.00 0.00 45 1016.2
20260509215037 15 45 8.0 19.3 0.00 0.00 0.00 45 1016.1
20260509214017 15 68 8.0 16.1 0.00 0.00 0.00 46 1016.1
20260509213017 15 45 6.4 17.7 0.00 0.00 0.00 47 1016.1
20260509212017 15 45 8.0 17.7 0.00 0.00 0.00 47 1016.1
20260509211016 15 45 8.0 19.3 0.00 0.00 0.00 48 1016.2
20260509210038 15 45 6.4 16.1 0.00 0.00 0.00 48 1016.1
20260509205018 15 45 6.4 17.7 0.00 0.00 0.00 48 1016.0
20260509204017 15 45 6.4 16.1 0.00 0.00 0.00 48 1015.9
20260509203017 16 45 8.0 25.7 0.00 0.00 0.00 47 1015.7
20260509202018 16 45 8.0 17.7 0.00 0.00 0.00 48 1015.5
20260509201017 16 45 6.4 20.9 0.00 0.00 0.00 53 1015.4
20260509200016 16 45 8.0 16.1 0.00 0.00 0.00 55 1015.2
20260509195016 16 68 4.8 14.5 0.00 0.00 0.00 56 1015.3
20260509194017 17 45 3.2 8.0 0.00 0.00 0.00 56 1015.2
20260509193017 17 45 4.8 8.0 0.00 0.00 0.00 55 1015.2
20260509192018 17 45 4.8 12.9 0.00 0.00 0.00 53 1015.2
20260509191018 18 45 4.8 9.7 0.00 0.00 0.00 53 1015.3
20260509190017 18 45 3.2 11.3 0.00 0.00 0.00 53 1015.2
20260509185018 18 68 6.4 17.7 0.00 0.00 0.00 52 1015.0
20260509184038 19 68 6.4 20.9 0.00 0.00 0.00 52 1014.9
20260509183016 19 68 4.8 16.1 0.00 0.00 0.00 52 1014.8
20260509182039 19 45 8.0 17.7 0.00 0.00 0.00 51 1014.9
20260509181016 20 45 11.3 27.4 0.00 0.00 0.00 50 1014.8
20260509180018 20 45 8.0 17.7 0.00 0.00 0.00 50 1014.7
20260509175020 20 45 8.0 16.1 0.00 0.00 0.00 50 1014.6
20260509174018 21 68 4.8 12.9 0.00 0.00 0.00 49 1014.7
20260509173017 21 113 3.2 9.7 0.00 0.00 0.00 50 1014.6
20260509172016 21 113 6.4 12.9 0.00 0.00 0.00 49 1014.6
20260509171018 21 113 9.7 17.7 0.00 0.00 0.00 47 1014.5
20260509170017 21 113 8.0 17.7 0.00 0.00 0.00 48 1014.6
20260509165058 21 113 8.0 14.5 0.00 0.00 0.00 47 1014.6
20260509164016 22 113 8.0 16.1 0.00 0.00 0.00 46 1014.7
20260509163016 22 135 8.0 19.3 0.00 0.00 0.00 45 1014.7
20260509162016 22 113 12.9 24.1 0.00 0.00 0.00 45 1014.6
20260509161018 22 113 11.3 20.9 0.00 0.00 0.00 44 1014.7
20260509160016 22 113 12.9 22.5 0.00 0.00 0.00 44 1014.7
20260509155036 22 90 8.0 17.7 0.00 0.00 0.00 45 1014.7
20260509154016 22 113 9.7 20.9 0.00 0.00 0.00 46 1014.8
20260509153016 22 90 11.3 19.3 0.00 0.00 0.00 47 1015.0
20260509152037 22 90 11.3 24.1 0.00 0.00 0.00 46 1015.0
20260509151018 22 135 11.3 20.9 0.00 0.00 0.00 47 1015.1
20260509150017 21 113 11.3 19.3 0.00 0.00 0.00 47 1015.3
20260509145016 21 135 12.9 20.9 0.00 0.00 0.00 48 1015.4
20260509144016 21 135 14.5 24.1 0.00 0.00 0.00 48 1015.6
20260509143016 21 135 11.3 20.9 0.00 0.00 0.00 49 1015.6
20260509142016 21 135 14.5 24.1 0.00 0.00 0.00 49 1015.6
20260509141037 21 135 12.9 22.5 0.00 0.00 0.00 50 1015.5